Location: Lafig�re
(44.4503°N, 4.0357°E)
Time: 16:44:37
(UTC+00:00)

Cosmos 2151 Rocket - Pass Details

Date: 24 September 2020
Orbit: 618 x 642 km, 82.5° (Epoch: 25 October)

Event Time Altitude Azimuth Distance (km) Brightness Sun altitude
Rises 19:09:23 0° 200° (SSW) 2,908 7.1 -17.1°
Reaches altitude 10° 19:11:39 10° 205° (SSW) 2,009 6.3 -17.5°
Maximum altitude 19:15:59 52° 282° (WNW) 793 4.5 -18.3°
Drops below altitude 10° 19:20:25 10° 359° (N) 2,038 6.4 -19.0°
Sets 19:22:44 0° 5° (N) 2,955 7.2 -19.4°
